Terug naar catalogus

STARLINK-34196

ActiefCommunicatieVLEO
NORAD 65324·PAYLOAD·🇺🇸 United States

Gelanceerd Aug 27, 2025 vanaf Cape Canaveral Space Force Station

Loading…

Volgende Passages (komende 24 uur)

TLE

VersSource: CelesTrak SupGP

Epoch: Sep 14, 2026, 14:03 UTC

1 65324C 25189B   26257.58590278 -.00047174  00000+0 -15169-2 0  2576
2 65324  53.1596  47.6761 0001227  86.2427 182.1257 15.31727055    16

Volg STARLINK-34196 in realtime met AllMySat

Download on the App Store